DW5868 Weather Reports


Display with metric or nautical units.
time (UTC)temp
F
wind
direction
speed
MPH
gust
MPH
rain 1hr
in
rain 24hr
in
rain mn
in
humidity
%
barometer
mb
20260503203030 48 309 0.0 6.0 0.00 0.00 0.00 46 1007.2
20260503201530 47 242 1.0 7.0 0.00 0.00 0.00 45 1007.1
20260503200030 47 198 1.0 4.0 0.00 0.00 0.00 46 1007.4
20260503194533 46 144 0.0 8.0 0.00 0.00 0.00 48 1007.5
20260503193038 45 229 1.0 6.0 0.00 0.00 0.00 51 1007.3
20260503191528 45 199 1.0 8.0 0.00 0.00 0.00 54 1007.4
20260503190039 47 194 2.0 14.0 0.00 0.00 0.00 49 1007.1
20260503184527 48 245 5.0 17.0 0.00 0.00 0.00 46 1006.9
20260503183027 48 241 3.0 15.0 0.00 0.00 0.00 47 1006.8
20260503181527 48 269 2.0 13.0 0.00 0.00 0.00 47 1006.6
20260503180027 50 280 3.0 9.0 0.00 0.00 0.00 46 1006.5
20260503174528 54 267 1.0 5.0 0.00 0.00 0.00 41 1006.6
20260503173025 54 18 0.0 5.0 0.00 0.00 0.00 44 1006.7
20260503171524 52 138 2.0 7.0 0.00 0.00 0.00 45 1006.8
20260503081526 42 273 0.0 3.0 0.00 0.00 0.00 67 1008.2
20260503071509 45 234 2.0 6.0 0.00 0.00 0.00 61 1008.6
20260503054520 45 263 1.0 6.0 0.00 0.00 0.00 62 1008.8
20260503053005 46 284 3.0 9.0 0.00 0.00 0.00 61 1008.7
20260503051505 46 271 3.0 7.0 0.00 0.00 0.00 61 1008.9
20260503050004 45 283 3.0 8.0 0.00 0.00 0.00 62 1008.9
20260503044510 44 58 0.0 1.0 0.00 0.00 0.00 65 1008.9
20260503043003 45 282 0.0 4.0 0.00 0.00 0.00 64 1008.9
20260503041503 46 287 1.0 12.0 0.00 0.00 0.00 61 1008.9
20260503040004 45 253 2.0 7.0 0.00 0.00 0.00 63 1008.7
20260503034503 46 246 2.0 7.0 0.00 0.00 0.00 62 1008.6
20260503033003 47 227 2.0 6.0 0.00 0.00 0.00 62 1008.6
20260503031502 47 205 1.0 6.0 0.00 0.00 0.00 59 1008.5
20260503030002 48 267 0.0 7.0 0.00 0.00 0.00 59 1008.4
20260503024501 48 265 1.0 6.0 0.00 0.00 0.00 58 1008.5
20260503023002 48 198 0.0 5.0 0.00 0.00 0.00 58 1008.2
20260503021502 49 223 0.0 4.0 0.00 0.00 0.00 57 1008.1
20260503020001 50 234 0.0 3.0 0.00 0.00 0.00 57 1007.9
20260503014623 50 310 1.0 9.0 0.00 0.00 0.00 56 1007.8
20260503013100 50 132 1.0 7.0 0.00 0.00 0.00 55 1007.8
20260503011559 51 183 2.0 7.0 0.00 0.00 0.00 54 1007.8
20260503010103 52 137 3.0 7.0 0.00 0.00 0.00 52 1008.1
20260503004559 52 215 2.0 7.0 0.00 0.00 0.00 51 1007.9
20260503003106 52 298 1.0 10.0 0.00 0.00 0.00 51 1008.0
20260503001612 51 203 2.0 8.0 0.00 0.00 0.00 52 1008.0
20260503000059 51 133 3.0 9.0 0.00 0.00 0.00 52 1008.2
20260502234557 52 250 2.0 10.0 0.00 0.00 0.00 51 1008.1
20260502233058 52 280 2.0 11.0 0.00 0.00 0.00 52 1008.2
20260502231555 52 202 5.0 14.0 0.00 0.00 0.00 51 1008.4
20260502230055 53 210 5.0 12.0 0.00 0.00 0.00 47 1008.5
20260502224553 53 273 6.0 15.0 0.00 0.00 0.00 47 1008.4
20260502223052 54 270 2.0 8.0 0.00 0.00 0.00 47 1008.7
20260502221551 53 59 2.0 21.0 0.00 0.00 0.00 48 1008.8
20260502220051 55 302 4.0 17.0 0.00 0.00 0.00 44 1009.1
20260502214600 57 221 3.0 17.0 0.00 0.00 0.00 41 1008.9
20260502213050 58 255 3.0 10.0 0.00 0.00 0.00 38 1009.1
20260502211547 58 240 7.0 19.0 0.00 0.00 0.00 37 1009.3
20260502210047 57 267 6.0 15.0 0.00 0.00 0.00 38 1009.4
20260502204546 57 157 2.0 12.0 0.00 0.00 0.00 38 1009.4